Αρχική σελίδα
METAR-TAF:

METAR-TAF

Αεροδρόμια :

Claremore, Οκλαχόμα, Ηνωμένες Πολιτείες Αμερικής

γεωγραφικό πλάτος: 36-17-40N, γεωγραφικό μήκος: 095-28-47W, υψόμετρο: 221 μ

Παρών καιρός

Η αναφορά έγινε 27 λεπτά πριν, στις 06:55 UTC
Άνεμος 9 kt από BA με ριπές μέχρι 15 kt
Θερμοκρασία 15°C
Υγρασία 94%
Πίεση 1022 hPa
Ορατότητα: 16.1 χλμ
Νεφοσκεπής σε ύψος 2500 πόδια

METAR: KGCM 220655Z AUTO 04009G15KT 10SM OVC025 15/14 A3017 RMK AO2 P0001 TSNO

Χρόνος: 02:22 (07:22 UTC)


TAF: λείπει

Μετεωρολογικές αναφορές και προγνώσεις για περισσότερα από 4000 αεροδρόμια (δελτία METAR και TAF).

Οι διαθέσιμοι σταθμοί απεικονίζονται στο χάρτη με κίτρινες και κόκκινες κουκκίδες.

Μετακινήστε το ποντίκι πάνω από τις κουκκίδες για να δείτε το όνομα του σταθμού.

Στη συνέχεια, κάντε κλικ για να δείτε τις μετεωρολογικές αναφορές και τις προγνώσεις καιρού.

Για να αλλάξετε το χάρτη: κάντε κλικ στα πράσινα κουμπιά με τον μαύρο σταυρό για να ζουμάρετε, στο πράσινο κουμπί με την παύλα για να αφαιρέσετε το ζουμ ή στα πράσινα βέλη για να αντιπαραβάλλετε χάρτες.


METAR-TAF: